Regional Weather Roundup
Issued by NWS Sterling, VA

Home | Current Version | Previous Version | Graphics & Text | Print | Product List | Glossary On
Versions: 1 2 3 4 5 6 7 8 9 10 11 12 13 14 15 16 17 18 19 20 21 22 23 24 25 26 27 28 29 30 31 32 33 34 35 36 37 38 39 40 41 42 43 44 45 46 47 48 49 50
000
ASUS41 KLWX 211810
RWRLWX

REGIONAL WEATHER ROUNDUP
NATIONAL WEATHER SERVICE BALTIMORE MD/WASHINGTON DC
200 PM EDT SUN SEP 21 2014

Note: "FAIR" indicates few or no clouds below 12,000 feet
with no significant weather and/or obstructions to visibility.
 TC=TEMPERATURE CELSIUS

 * =Non NWS site. Station does not report precipitation (e.g. rain,
    snow, etc.), thunder, or fog.

DCZ001-MDZ009-015-VAZ040>042-051-053>054-211900-
WASHINGTON METRO

CITY           SKY/WX    TMP DP  RH WIND       PRES   REMARKS
WASHINGTON NAT PTSUNNY   83  59  44 SW7       29.75F
DULLES         MOSUNNY   81  61  50 S5        29.75F
ANDREWS AFB    MOSUNNY   80  62  52 VRB5      29.75F
QUANTICO       SUNNY     77  64  64 SW7       29.75F
COLLEGE PARK*  MOSUNNY   82  61  47 CALM      29.73F
LEESBURG*      SUNNY     84  64  51 S6        29.75F
MANASSAS*      SUNNY     82  64  54 SE5       29.74F
GAITHERSBURG*  SUNNY     81  64  57 SE6       29.78F

$$

MDZ006>007-011-014-211900-
BALTIMORE METRO

CITY           SKY/WX    TMP DP  RH WIND       PRES   REMARKS
BWI AIRPORT    PTSUNNY   80  61  52 CALM      29.73F
MD SCIENCE CTR   N/A     80  61  52 MISG      29.74F
MARTIN STATE   PTSUNNY   79  66  65 SE5       29.76F
ANNAPOLIS      PTSUNNY   75  67  76 SE12      29.74F
FORT MEADE*    MOSUNNY   79  63  57 S3        29.76F

$$

MDZ012-015-019>023-211900-
MARYLAND EASTERN SHORE

CITY           SKY/WX    TMP DP  RH WIND       PRES   REMARKS
OCEAN CITY     CLOUDY    75  69  81 NE10      29.72F
SALISBURY      CLOUDY    81  69  67 N9        29.73F
BAY BRIDGE AP*   N/A     77  61  57 E3        29.74F
CAMBRIDGE*     PTSUNNY   77  68  73 CALM      29.74F
EASTON*        PTSUNNY   77  68  73 CALM      29.79F

$$

MDZ017>025-211900-
SOUTHERN MARYLAND

CITY           SKY/WX    TMP DP  RH WIND       PRES   REMARKS
PATUXENT RIVER PTSUNNY   78  64  61 NE6       29.74F
ST INIGOES     PTSUNNY   80  64  58 W7        29.74F
LEONARDTOWN*   PTSUNNY   79  55  44 NW5       29.75F

$$

MDZ003>005-211900-
NORTH CENTRAL MARYLAND

CITY           SKY/WX    TMP DP  RH WIND       PRES   REMARKS
FREDERICK*     SUNNY     88  64  45 SW7       29.76F
HAGERSTOWN APT MOSUNNY   81  60  48 S9        29.72F
WESTMINSTER*   SUNNY     81  64  57 SW6       29.74F

$$

MDZ501>502-211900-
WESTERN MARYLAND

CITY           SKY/WX    TMP DP  RH WIND       PRES   REMARKS
OAKLAND*       CLOUDY    66 N/A N/A W8G16     29.83F
CUMBERLAND*    MOSUNNY   86  61  42 SW6       29.74F

$$

VAZ025>031-211900-
SHENANDOAH VALLEY

CITY           SKY/WX    TMP DP  RH WIND       PRES   REMARKS
WINCHESTER*    PTSUNNY   86  57  37 SW7       29.73F
STAUNTON*      MOSUNNY   85  57  39 SW12      29.79F

$$

WVZ021-048>050-054>055-211900-
EASTERN WEST VIRGINIA PANHANDLE

CITY           SKY/WX    TMP DP  RH WIND       PRES   REMARKS
MARTINSBURG    MOSUNNY   82  58  43 VRB7      29.72F
PETERSBURG*    CLOUDY    83  54  36 SW7       29.74F

$$

VAZ036>039-050-211900-
CENTRAL FOOTHILLS

CITY           SKY/WX    TMP DP  RH WIND       PRES   REMARKS
CHARLOTTESVILL SUNNY     84  60  44 CALM      29.76F
ORANGE*        SUNNY     86  59  39 SE9       29.77F

$$

VAZ055>057-211900-
NORTH AND CENTRAL PIEDMONT

CITY           SKY/WX    TMP DP  RH WIND       PRES   REMARKS
FREDERICKSBRG* SUNNY     85  61  44 CALM      29.74F
STAFFORD*      SUNNY     82  60  48 S3        29.79F

$$

NCZ024-NYZ072-PAZ021-071-VAZ022-071-211900-
OTHER REGIONAL OBSERVATIONS

CITY           SKY/WX    TMP DP  RH WIND       PRES   REMARKS
NEW YORK CITY  CLOUDY    72  67  84 VRB5      29.77F HAZE
PHILADELPHIA   CLOUDY    76  66  71 SE7       29.74F
PITTSBURGH     MOSUNNY   74  65  73 W6        29.71F
ROANOKE        PTSUNNY   82  62  50 W10       29.85F
RICHMOND       MOSUNNY   87  57  35 N3        29.76F
RALEIGH        MOSUNNY   85  61  44 NW6       29.83F

$$

ANZ530>537-211900-
MARINE OBSERVATIONS

STATION/POSITION TIME  TEMP    WIND        PRES
                       AIR SEA DIR/SP/G
                 (UTC) (F)     (DEG/KT/KT) (MB)
THOMAS PT LIGHT  1800   71 74  100/  5/  5 1008.2F
BALT KEY BRIDGE  1800   74     100/  2/  3 1007.2F
COVE POINT       1800   71      40/  9/ 10 1007.4F
LEWISETTA        1800   76 74  310/  4/  4 1007.0F
SOLOMONS ISLAND  1800      76                N/A
PINEY POINT      1800          310/  7/  7   N/A

$$




USA.gov is the U.S. government's official web portal to all federal, state and local government web resources and services.